Regional Weather Roundup
Issued by NWS

Home | Current Version | Previous Version | Graphics & Text | Print | Product List | Glossary On
Versions: 1 2 3 4 5 6 7 8 9 10 11 12 13 14 15 16 17 18 19 20 21 22 23 24 25 26 27 28 29 30 31 32 33 34 35 36 37 38 39 40 41 42 43 44 45 46 47 48 49 50
000
ASUS43 KLMK 011602
RWRKY
KENTUCKY REGIONAL WEATHER ROUNDUP
NATIONAL WEATHER SERVICE LOUISVILLE KY
1200 PM EDT FRI AUG 01 2014

NOTE "FAIR" INDICATES FEW OR NO CLOUDS BELOW 12,000 FEET
WITH NO SIGNIFICANT WEATHER AND/OR OBSTRUCTIONS TO VISIBILITY.

KYZ001>023-026-027-061>063-070>075-011700-
WESTERN AND SOUTH CENTRAL KENTUCKY

CITY           SKY/WX    TMP DP  RH WIND       PRES   REMARKS
PADUCAH        CLOUDY    82  65  56 N6        30.08F
HENDERSON      PTSUNNY   79  63  57 E3        30.08F
OWENSBORO      SUNNY     81  62  52 VRB3      30.10S
HOPKINSVILLE   SUNNY     84  57  39 VRB7      30.09S
BOWLING GREEN  SUNNY     84  58  40 NE7       30.10S
GLASGOW        SUNNY     82  57  42 E7        30.11S
$$

KYZ024-025-028>034-038-045-046-053-011700-
NORTH CENTRAL KENTUCKY

CITY           SKY/WX    TMP DP  RH WIND       PRES   REMARKS
LOUISVILLE/SDF MOSUNNY   83  60  45 CALM      30.10S
LOUISVILLE/LOU SUNNY     81  58  45 W3        30.11S
FORT KNOX      SUNNY     80  61  53 VRB5      30.10S
$$

KYZ035>037-039>044-047>052-055>060-089>105-011700-
NORTHEAST KENTUCKY

CITY           SKY/WX    TMP DP  RH WIND       PRES   REMARKS
LEXINGTON      MOSUNNY   82  60  47 VRB5      30.13R
COVINGTON      MOSUNNY   81  56  42 E3        30.12S
FRANKFORT      SUNNY     82  57  42 VRB3      30.11S
$$

KYZ054-064>069-076>088-106>120-011700-
SOUTHEAST KENTUCKY

CITY           SKY/WX    TMP DP  RH WIND       PRES   REMARKS
JACKSON        SUNNY     78  61  55 CALM      30.13F
LONDON         SUNNY     78  62  57 VRB3      30.13S
SOMERSET       MOSUNNY   79  63  57 NE5       30.13S
MIDDLESBORO    PTSUNNY   77  64  63 NE5       30.13F
MONTICELLO     SUNNY     82  67  60 VRB6      30.13S
$$



USA.gov is the U.S. government's official web portal to all federal, state and local government web resources and services.